Time,TemperatureF,DewpointF,PressureIn,WindDirection,WindDirectionDegrees,WindSpeedMPH,WindSpeedGustMPH,Humidity,HourlyPrecipIn,Conditions,Clouds,dailyrainin,SoftwareType,DateUTC
2013-03-27 00:00:00,36.6,28.4,29.96,NNW,337,0.0,4.0,72,0.00,,---,0.00,VWS V14.00,2013-03-27 06:00:00,
2013-03-27 00:05:00,36.6,28.8,29.96,NNW,337,0.0,4.0,73,0.00,,---,0.00,VWS V14.00,2013-03-27 06:05:00,
2013-03-27 00:10:00,36.5,28.7,29.96,NNW,337,0.0,1.0,73,0.00,,---,0.00,VWS V14.00,2013-03-27 06:10:00,
2013-03-27 00:15:00,36.5,28.7,29.96,NNW,337,0.0,0.0,73,0.00,,---,0.00,VWS V14.00,2013-03-27 06:15:00,
2013-03-27 00:20:00,36.1,28.6,29.96,NNW,337,0.0,0.0,74,0.00,,---,0.00,VWS V14.00,2013-03-27 06:20:00,
2013-03-27 00:26:00,36.2,28.7,29.96,NNW,337,0.0,0.0,74,0.00,,---,0.00,VWS V14.00,2013-03-27 06:26:00,
2013-03-27 00:31:00,35.8,27.3,29.96,NNW,337,0.0,0.0,71,0.00,,---,0.00,VWS V14.00,2013-03-27 06:31:00,
2013-03-27 00:36:00,35.3,27.5,29.96,NNW,337,0.0,0.0,73,0.00,,---,0.00,VWS V14.00,2013-03-27 06:36:00,
2013-03-27 00:42:00,35.6,27.8,29.95,West,275,4.0,4.0,73,0.00,,---,0.00,VWS V14.00,2013-03-27 06:42:00,
2013-03-27 00:47:00,35.7,27.6,29.95,WSW,254,3.0,4.0,72,0.00,,---,0.00,VWS V14.00,2013-03-27 06:47:00,
2013-03-27 00:52:00,35.8,27.3,29.94,SSW,213,4.0,6.0,71,0.00,,---,0.00,VWS V14.00,2013-03-27 06:52:00,
2013-03-27 00:58:00,35.7,27.6,29.94,SW,216,6.0,7.0,72,0.00,,---,0.00,VWS V14.00,2013-03-27 06:58:00,
2013-03-27 01:03:00,35.4,27.6,29.93,SW,232,5.0,8.0,73,0.00,,---,0.00,VWS V14.00,2013-03-27 07:03:00,
2013-03-27 01:08:00,35.2,27.4,29.94,SW,233,5.0,6.0,73,0.00,,---,0.00,VWS V14.00,2013-03-27 07:08:00,
2013-03-27 01:13:00,35.2,27.4,29.94,SW,232,4.0,6.0,73,0.00,,---,0.00,VWS V14.00,2013-03-27 07:13:00,
2013-03-27 01:18:00,35.3,27.5,29.94,SW,224,4.0,6.0,73,0.00,,---,0.00,VWS V14.00,2013-03-27 07:18:00,
2013-03-27 01:23:00,35.4,27.6,29.94,West,271,4.0,8.0,73,0.00,,---,0.00,VWS V14.00,2013-03-27 07:23:00,
2013-03-27 01:28:00,35.6,27.1,29.93,West,264,7.0,7.0,71,0.00,,---,0.00,VWS V14.00,2013-03-27 07:28:00,
2013-03-27 01:33:00,35.8,26.6,29.94,West,269,5.0,9.0,69,0.00,,---,0.00,VWS V14.00,2013-03-27 07:33:00,
2013-03-27 01:39:00,36.0,27.2,29.93,West,261,7.0,10.0,70,0.00,,---,0.00,VWS V14.00,2013-03-27 07:39:00,
2013-03-27 01:44:00,35.8,26.3,29.93,WSW,258,4.0,10.0,68,0.00,,---,0.00,VWS V14.00,2013-03-27 07:44:00,
2013-03-27 01:49:00,36.1,27.3,29.93,West,262,6.0,7.0,70,0.00,,---,0.00,VWS V14.00,2013-03-27 07:49:00,
2013-03-27 01:54:00,36.2,27.0,29.93,West,262,5.0,7.0,69,0.00,,---,0.00,VWS V14.00,2013-03-27 07:54:00,
2013-03-27 01:59:00,36.5,27.3,29.92,WSW,250,5.0,7.0,69,0.00,,---,0.00,VWS V14.00,2013-03-27 07:59:00,
2013-03-27 02:04:00,36.5,26.6,29.93,West,267,5.0,7.0,67,0.00,,---,0.00,VWS V14.00,2013-03-27 08:04:00,
2013-03-27 02:09:00,36.3,26.8,29.93,West,273,1.0,7.0,68,0.00,,---,0.00,VWS V14.00,2013-03-27 08:09:00,
2013-03-27 02:14:00,35.9,26.4,29.92,West,273,0.0,7.0,68,0.00,,---,0.00,VWS V14.00,2013-03-27 08:14:00,
2013-03-27 02:19:00,35.7,27.6,29.92,West,273,3.0,4.0,72,0.00,,---,0.00,VWS V14.00,2013-03-27 08:19:00,
2013-03-27 02:24:00,35.9,27.4,29.92,West,273,0.0,4.0,71,0.00,,---,0.00,VWS V14.00,2013-03-27 08:24:00,
2013-03-27 02:30:00,35.8,26.3,29.92,WNW,291,6.0,7.0,68,0.00,,---,0.00,VWS V14.00,2013-03-27 08:30:00,
2013-03-27 02:35:00,35.7,27.2,29.92,WNW,302,2.0,7.0,71,0.00,,---,0.00,VWS V14.00,2013-03-27 08:35:00,
2013-03-27 02:40:00,35.7,26.2,29.92,NW,304,3.0,5.0,68,0.00,,---,0.00,VWS V14.00,2013-03-27 08:40:00,
2013-03-27 02:45:00,35.4,25.9,29.92,WNW,299,4.0,5.0,68,0.00,,---,0.00,VWS V14.00,2013-03-27 08:45:00,
2013-03-27 02:50:00,35.3,26.2,29.92,WNW,298,0.0,6.0,69,0.00,,---,0.00,VWS V14.00,2013-03-27 08:50:00,
2013-03-27 02:56:00,35.5,26.4,29.92,WNW,299,2.0,5.0,69,0.00,,---,0.00,VWS V14.00,2013-03-27 08:56:00,
2013-03-27 03:01:00,35.6,27.5,29.93,WNW,299,0.0,5.0,72,0.00,,---,0.00,VWS V14.00,2013-03-27 09:01:00,
2013-03-27 03:07:00,35.4,27.3,29.93,WNW,299,0.0,1.0,72,0.00,,---,0.00,VWS V14.00,2013-03-27 09:07:00,
2013-03-27 03:12:00,35.7,28.6,29.93,WNW,299,0.0,1.0,75,0.00,,---,0.00,VWS V14.00,2013-03-27 09:12:00,
2013-03-27 03:17:00,35.6,27.5,29.92,WNW,299,0.0,0.0,72,0.00,,---,0.00,VWS V14.00,2013-03-27 09:17:00,
2013-03-27 03:22:00,35.1,27.7,29.92,WNW,299,3.0,3.0,74,0.00,,---,0.00,VWS V14.00,2013-03-27 09:22:00,
2013-03-27 03:28:00,35.0,27.9,29.92,WNW,299,0.0,0.0,75,0.00,,---,0.00,VWS V14.00,2013-03-27 09:28:00,
2013-03-27 03:33:00,34.9,27.5,29.91,WNW,299,0.0,1.0,74,0.00,,---,0.00,VWS V14.00,2013-03-27 09:33:00,
2013-03-27 03:38:00,34.4,27.3,29.90,WNW,299,0.0,0.0,75,0.00,,---,0.00,VWS V14.00,2013-03-27 09:38:00,
2013-03-27 03:43:00,34.2,27.8,29.91,WNW,299,4.0,4.0,77,0.00,,---,0.00,VWS V14.00,2013-03-27 09:43:00,
2013-03-27 03:48:00,34.7,28.2,29.91,WNW,299,0.0,3.0,77,0.00,,---,0.00,VWS V14.00,2013-03-27 09:48:00,
2013-03-27 03:53:00,34.8,27.7,29.91,WNW,299,0.0,3.0,75,0.00,,---,0.00,VWS V14.00,2013-03-27 09:53:00,
2013-03-27 03:59:00,34.4,27.0,29.91,WNW,299,0.0,0.0,74,0.00,,---,0.00,VWS V14.00,2013-03-27 09:59:00,
2013-03-27 04:04:00,34.3,27.9,29.92,WNW,299,4.0,4.0,77,0.00,,---,0.00,VWS V14.00,2013-03-27 10:04:00,
2013-03-27 04:09:00,34.2,26.8,29.91,WNW,283,4.0,9.0,74,0.00,,---,0.00,VWS V14.00,2013-03-27 10:09:00,
2013-03-27 04:14:00,34.3,26.9,29.92,WNW,283,0.0,9.0,74,0.00,,---,0.00,VWS V14.00,2013-03-27 10:14:00,
2013-03-27 04:19:00,34.4,27.0,29.92,WNW,284,2.0,6.0,74,0.00,,---,0.00,VWS V14.00,2013-03-27 10:19:00,
2013-03-27 04:24:00,34.8,27.4,29.92,WNW,284,1.0,6.0,74,0.00,,---,0.00,VWS V14.00,2013-03-27 10:24:00,
2013-03-27 04:29:00,34.9,27.5,29.92,WNW,284,3.0,4.0,74,0.00,,---,0.00,VWS V14.00,2013-03-27 10:29:00,
2013-03-27 04:34:00,35.1,27.7,29.92,WNW,284,4.0,4.0,74,0.00,,---,0.00,VWS V14.00,2013-03-27 10:34:00,
2013-03-27 04:40:00,35.0,27.2,29.92,WNW,284,0.0,5.0,73,0.00,,---,0.00,VWS V14.00,2013-03-27 10:40:00,
2013-03-27 04:45:00,34.8,27.7,29.92,WNW,284,2.0,5.0,75,0.00,,---,0.00,VWS V14.00,2013-03-27 10:45:00,
2013-03-27 04:50:00,35.0,27.6,29.92,WNW,284,0.0,3.0,74,0.00,,---,0.00,VWS V14.00,2013-03-27 10:50:00,
2013-03-27 04:55:00,35.2,27.8,29.92,WNW,284,1.0,3.0,74,0.00,,---,0.00,VWS V14.00,2013-03-27 10:55:00,
2013-03-27 05:00:00,35.6,27.5,29.92,WNW,284,0.0,3.0,72,0.00,,---,0.00,VWS V14.00,2013-03-27 11:00:00,
2013-03-27 05:05:00,35.8,27.7,29.92,WNW,284,3.0,4.0,72,0.00,,---,0.00,VWS V14.00,2013-03-27 11:05:00,
2013-03-27 05:10:00,35.7,27.6,29.92,WNW,284,4.0,4.0,72,0.00,,---,0.00,VWS V14.00,2013-03-27 11:10:00,
2013-03-27 05:15:00,35.6,27.8,29.92,WNW,284,2.0,3.0,73,0.00,,---,0.00,VWS V14.00,2013-03-27 11:15:00,
2013-03-27 05:21:00,35.2,27.8,29.92,WNW,284,1.0,3.0,74,0.00,,---,0.00,VWS V14.00,2013-03-27 11:21:00,
2013-03-27 05:26:00,35.0,27.9,29.92,WNW,284,0.0,0.0,75,0.00,,---,0.00,VWS V14.00,2013-03-27 11:26:00,
2013-03-27 05:31:00,34.5,27.1,29.92,WNW,284,0.0,1.0,74,0.00,,---,0.00,VWS V14.00,2013-03-27 11:31:00,
2013-03-27 05:36:00,34.5,28.0,29.92,WNW,284,4.0,4.0,77,0.00,,---,0.00,VWS V14.00,2013-03-27 11:36:00,
2013-03-27 05:42:00,34.8,28.3,29.92,WNW,284,3.0,5.0,77,0.00,,---,0.00,VWS V14.00,2013-03-27 11:42:00,
2013-03-27 05:47:00,34.9,28.1,29.92,WNW,284,3.0,5.0,76,0.00,,---,0.00,VWS V14.00,2013-03-27 11:47:00,
2013-03-27 05:52:00,35.0,28.9,29.92,WNW,284,0.0,5.0,78,0.00,,---,0.00,VWS V14.00,2013-03-27 11:52:00,
2013-03-27 05:57:00,34.7,28.2,29.92,WNW,284,0.0,0.0,77,0.00,,---,0.00,VWS V14.00,2013-03-27 11:57:00,
2013-03-27 06:02:00,34.7,29.2,29.92,WNW,284,0.0,3.0,80,0.00,,---,0.00,VWS V14.00,2013-03-27 12:02:00,
2013-03-27 06:08:00,34.9,29.1,29.93,WNW,284,0.0,2.0,79,0.00,,---,0.00,VWS V14.00,2013-03-27 12:08:00,
2013-03-27 06:13:00,34.8,28.3,29.92,WNW,284,0.0,2.0,77,0.00,,---,0.00,VWS V14.00,2013-03-27 12:13:00,
2013-03-27 06:18:00,34.4,28.3,29.92,WNW,284,0.0,0.0,78,0.00,,---,0.00,VWS V14.00,2013-03-27 12:18:00,
2013-03-27 06:23:00,34.3,28.2,29.93,WNW,284,0.0,1.0,78,0.00,,---,0.00,VWS V14.00,2013-03-27 12:23:00,
2013-03-27 06:28:00,34.1,28.3,29.93,WNW,284,0.0,0.0,79,0.00,,---,0.00,VWS V14.00,2013-03-27 12:28:00,
2013-03-27 06:33:00,34.1,28.6,29.93,WNW,284,0.0,0.0,80,0.00,,---,0.00,VWS V14.00,2013-03-27 12:33:00,
2013-03-27 06:39:00,33.9,28.4,29.93,WNW,284,0.0,0.0,80,0.00,,---,0.00,VWS V14.00,2013-03-27 12:39:00,
2013-03-27 06:44:00,34.3,28.8,29.93,WNW,284,0.0,1.0,80,0.00,,---,0.00,VWS V14.00,2013-03-27 12:44:00,
2013-03-27 06:49:00,34.6,28.8,29.93,WNW,284,0.0,3.0,79,0.00,,---,0.00,VWS V14.00,2013-03-27 12:49:00,
2013-03-27 06:54:00,34.2,28.7,29.93,WNW,284,0.0,3.0,80,0.00,,---,0.00,VWS V14.00,2013-03-27 12:54:00,
2013-03-27 06:59:00,33.7,27.6,29.93,WNW,284,0.0,0.0,78,0.00,,---,0.00,VWS V14.00,2013-03-27 12:59:00,
2013-03-27 07:04:00,33.7,28.5,29.93,WNW,284,0.0,0.0,81,0.00,,---,0.00,VWS V14.00,2013-03-27 13:04:00,
2013-03-27 07:09:00,34.2,29.0,29.94,WNW,284,0.0,1.0,81,0.00,,---,0.00,VWS V14.00,2013-03-27 13:09:00,
2013-03-27 07:14:00,33.3,27.2,29.94,NNW,329,4.0,7.0,78,0.00,,---,0.00,VWS V14.00,2013-03-27 13:14:00,
2013-03-27 07:20:00,32.8,27.6,29.94,NNW,329,0.0,4.0,81,0.00,,---,0.00,VWS V14.00,2013-03-27 13:20:00,
2013-03-27 07:25:00,32.9,27.7,29.94,NNW,329,0.0,4.0,81,0.00,,---,0.00,VWS V14.00,2013-03-27 13:25:00,
2013-03-27 07:30:00,33.1,27.9,29.95,NNW,329,2.0,4.0,81,0.00,,---,0.00,VWS V14.00,2013-03-27 13:30:00,
2013-03-27 07:35:00,33.3,28.1,29.95,NNW,329,0.0,0.0,81,0.00,,---,0.00,VWS V14.00,2013-03-27 13:35:00,
2013-03-27 07:40:00,33.4,27.9,29.95,NNW,331,0.0,4.0,80,0.00,,---,0.00,VWS V14.00,2013-03-27 13:40:00,
2013-03-27 07:45:00,33.3,27.8,29.95,NNW,331,0.0,0.0,80,0.00,,---,0.00,VWS V14.00,2013-03-27 13:45:00,
2013-03-27 07:51:00,33.3,27.8,29.95,NNW,331,0.0,2.0,80,0.00,,---,0.00,VWS V14.00,2013-03-27 13:51:00,
2013-03-27 07:56:00,33.3,27.8,29.95,NNW,331,0.0,0.0,80,0.00,,---,0.00,VWS V14.00,2013-03-27 13:56:00,
2013-03-27 08:01:00,33.7,28.2,29.95,NNW,331,0.0,3.0,80,0.00,,---,0.00,VWS V14.00,2013-03-27 14:01:00,
2013-03-27 08:06:00,34.6,29.1,29.95,NNW,331,0.0,0.0,80,0.00,,---,0.00,VWS V14.00,2013-03-27 14:06:00,
2013-03-27 08:12:00,35.8,29.9,29.95,NNW,331,0.0,0.0,79,0.00,,---,0.00,VWS V14.00,2013-03-27 14:12:00,
2013-03-27 08:17:00,36.9,30.0,29.95,NNW,331,0.0,0.0,76,0.00,,---,0.00,VWS V14.00,2013-03-27 14:17:00,
2013-03-27 08:22:00,38.1,30.6,29.95,NNW,336,0.0,1.0,74,0.00,,---,0.00,VWS V14.00,2013-03-27 14:22:00,
2013-03-27 08:27:00,38.2,30.3,29.95,NNW,336,0.0,1.0,73,0.00,,---,0.00,VWS V14.00,2013-03-27 14:27:00,
2013-03-27 08:32:00,37.9,30.0,29.94,NNW,336,0.0,2.0,73,0.00,,---,0.00,VWS V14.00,2013-03-27 14:32:00,
2013-03-27 08:37:00,38.2,30.3,29.94,NNW,336,0.0,1.0,73,0.00,,---,0.00,VWS V14.00,2013-03-27 14:37:00,
2013-03-27 08:42:00,38.6,30.0,29.94,NNW,336,0.0,2.0,71,0.00,,---,0.00,VWS V14.00,2013-03-27 14:42:00,
2013-03-27 08:48:00,38.9,30.7,29.95,NNW,337,0.0,1.0,72,0.00,,---,0.00,VWS V14.00,2013-03-27 14:48:00,
2013-03-27 08:53:00,39.6,31.0,29.95,NNW,338,0.0,1.0,71,0.00,,---,0.00,VWS V14.00,2013-03-27 14:53:00,
2013-03-27 08:58:00,39.8,31.5,29.95,ENE,65,0.0,3.0,72,0.00,,---,0.00,VWS V14.00,2013-03-27 14:58:00,
2013-03-27 09:03:00,40.0,31.7,29.95,ENE,65,0.0,3.0,72,0.00,,---,0.00,VWS V14.00,2013-03-27 15:03:00,
2013-03-27 09:08:00,40.1,31.8,29.95,ENE,65,1.0,1.0,72,0.00,,---,0.00,VWS V14.00,2013-03-27 15:08:00,
2013-03-27 09:13:00,40.2,31.9,29.95,ENE,65,0.0,2.0,72,0.00,,---,0.00,VWS V14.00,2013-03-27 15:13:00,
2013-03-27 09:19:00,40.2,32.2,29.95,East,101,1.0,4.0,73,0.00,,---,0.00,VWS V14.00,2013-03-27 15:19:00,
2013-03-27 09:24:00,40.0,32.1,29.95,ESE,102,1.0,4.0,73,0.00,,---,0.00,VWS V14.00,2013-03-27 15:24:00,
2013-03-27 09:29:00,39.9,32.3,29.95,SE,129,5.0,5.0,74,0.00,,---,0.00,VWS V14.00,2013-03-27 15:29:00,
2013-03-27 09:34:00,39.7,32.8,29.94,SE,128,2.0,6.0,76,0.00,,---,0.00,VWS V14.00,2013-03-27 15:34:00,
2013-03-27 09:39:00,39.9,32.6,29.94,SE,129,0.0,4.0,75,0.00,,---,0.00,VWS V14.00,2013-03-27 15:39:00,
2013-03-27 09:45:00,40.2,32.2,29.94,SE,128,0.0,4.0,73,0.00,,---,0.00,VWS V14.00,2013-03-27 15:45:00,
2013-03-27 09:50:00,40.5,32.2,29.94,SE,128,0.0,4.0,72,0.00,,---,0.00,VWS V14.00,2013-03-27 15:50:00,
2013-03-27 09:55:00,41.1,32.4,29.94,SE,128,0.0,4.0,71,0.00,,---,0.00,VWS V14.00,2013-03-27 15:55:00,
2013-03-27 10:00:00,41.1,32.4,29.94,SE,136,0.0,4.0,71,0.00,,---,0.00,VWS V14.00,2013-03-27 16:00:00,
2013-03-27 10:05:00,41.5,32.8,29.94,SE,136,0.0,0.0,71,0.00,,---,0.00,VWS V14.00,2013-03-27 16:05:00,
2013-03-27 10:11:00,41.4,32.4,29.94,SE,130,5.0,7.0,70,0.00,,---,0.00,VWS V14.00,2013-03-27 16:11:00,
2013-03-27 10:16:00,40.9,33.6,29.94,SE,135,1.0,4.0,75,0.00,,---,0.00,VWS V14.00,2013-03-27 16:16:00,
2013-03-27 10:22:00,40.8,32.1,29.95,SE,139,2.0,6.0,71,0.00,,---,0.00,VWS V14.00,2013-03-27 16:22:00,
2013-03-27 10:27:00,41.0,32.7,29.94,SE,140,2.0,2.0,72,0.00,,---,0.00,VWS V14.00,2013-03-27 16:27:00,
2013-03-27 10:32:00,41.7,33.0,29.95,SE,138,2.0,5.0,71,0.00,,---,0.00,VWS V14.00,2013-03-27 16:32:00,
2013-03-27 10:37:00,42.0,32.9,29.94,SSE,153,4.0,6.0,70,0.00,,---,0.00,VWS V14.00,2013-03-27 16:37:00,
2013-03-27 10:42:00,41.9,33.2,29.95,SSE,162,6.0,8.0,71,0.00,,---,0.00,VWS V14.00,2013-03-27 16:42:00,
2013-03-27 10:48:00,41.5,32.5,29.94,SSE,163,6.0,8.0,70,0.00,,---,0.00,VWS V14.00,2013-03-27 16:48:00,
2013-03-27 10:53:00,41.4,32.0,29.94,SSE,165,0.0,8.0,69,0.00,,---,0.00,VWS V14.00,2013-03-27 16:53:00,
2013-03-27 10:58:00,41.6,31.8,29.94,SE,146,4.0,7.0,68,0.00,,---,0.00,VWS V14.00,2013-03-27 16:58:00,
2013-03-27 11:03:00,41.8,32.0,29.94,SE,140,4.0,7.0,68,0.00,,---,0.00,VWS V14.00,2013-03-27 17:03:00,
2013-03-27 11:08:00,42.2,32.8,29.94,SE,144,5.0,9.0,69,0.00,,---,0.00,VWS V14.00,2013-03-27 17:08:00,
2013-03-27 11:13:00,42.6,33.5,29.94,South,170,2.0,9.0,70,0.00,,---,0.00,VWS V14.00,2013-03-27 17:13:00,
2013-03-27 11:19:00,42.7,34.0,29.94,SSE,161,6.0,8.0,71,0.00,,---,0.00,VWS V14.00,2013-03-27 17:19:00,
2013-03-27 11:24:00,42.9,34.2,29.94,SSE,149,5.0,8.0,71,0.00,,---,0.00,VWS V14.00,2013-03-27 17:24:00,
2013-03-27 11:29:00,43.1,33.6,29.94,SSE,154,0.0,8.0,69,0.00,,---,0.00,VWS V14.00,2013-03-27 17:29:00,
2013-03-27 11:34:00,43.5,33.7,29.94,South,171,4.0,8.0,68,0.00,,---,0.00,VWS V14.00,2013-03-27 17:34:00,
2013-03-27 11:39:00,43.6,33.4,29.94,SSE,148,1.0,8.0,67,0.00,,---,0.00,VWS V14.00,2013-03-27 17:39:00,
2013-03-27 11:45:00,43.7,32.7,29.94,SE,128,4.0,9.0,65,0.00,,---,0.00,VWS V14.00,2013-03-27 17:45:00,
2013-03-27 11:50:00,43.9,32.5,29.94,SSE,156,2.0,9.0,64,0.00,,---,0.00,VWS V14.00,2013-03-27 17:50:00,
2013-03-27 11:55:00,44.2,33.6,29.93,SE,146,8.0,9.0,66,0.00,,---,0.00,VWS V14.00,2013-03-27 17:55:00,
2013-03-27 12:00:00,44.0,31.8,29.93,SSE,159,2.0,9.0,62,0.00,,---,0.00,VWS V14.00,2013-03-27 18:00:00,
2013-03-27 12:05:00,44.5,31.1,29.93,SSE,148,5.0,9.0,59,0.00,,---,0.00,VWS V14.00,2013-03-27 18:05:00,
2013-03-27 12:10:00,44.8,31.4,29.93,South,169,7.0,11.0,59,0.00,,---,0.00,VWS V14.00,2013-03-27 18:10:00,
2013-03-27 12:15:00,44.6,30.8,29.93,SSE,158,6.0,11.0,58,0.00,,---,0.00,VWS V14.00,2013-03-27 18:15:00,
2013-03-27 12:20:00,44.7,30.9,29.93,SSE,150,8.0,10.0,58,0.00,,---,0.00,VWS V14.00,2013-03-27 18:20:00,
2013-03-27 12:25:00,44.6,29.5,29.93,SSE,152,8.0,9.0,55,0.00,,---,0.00,VWS V14.00,2013-03-27 18:25:00,
2013-03-27 12:30:00,44.8,32.2,29.93,SSE,155,7.0,11.0,61,0.00,,---,0.00,VWS V14.00,2013-03-27 18:30:00,
2013-03-27 12:36:00,45.4,32.3,29.93,SSE,157,8.0,10.0,60,0.00,,---,0.00,VWS V14.00,2013-03-27 18:36:00,
2013-03-27 12:41:00,45.5,32.0,29.92,SSE,150,8.0,13.0,59,0.00,,---,0.00,VWS V14.00,2013-03-27 18:41:00,
2013-03-27 12:46:00,44.9,30.6,29.93,SE,141,8.0,9.0,57,0.00,,---,0.00,VWS V14.00,2013-03-27 18:46:00,
2013-03-27 12:51:00,44.9,32.3,29.92,SSE,148,5.0,11.0,61,0.00,,---,0.00,VWS V14.00,2013-03-27 18:51:00,
2013-03-27 12:57:00,45.3,32.7,29.93,South,178,8.0,9.0,61,0.00,,---,0.00,VWS V14.00,2013-03-27 18:57:00,
2013-03-27 13:02:00,44.8,32.2,29.92,SSE,157,7.0,11.0,61,0.00,,---,0.00,VWS V14.00,2013-03-27 19:02:00,
2013-03-27 13:07:00,44.9,33.1,29.92,South,173,6.0,9.0,63,0.00,,---,0.00,VWS V14.00,2013-03-27 19:07:00,
2013-03-27 13:12:00,45.5,33.2,29.92,SE,142,11.0,12.0,62,0.00,,---,0.00,VWS V14.00,2013-03-27 19:12:00,
2013-03-27 13:17:00,46.0,34.1,29.92,SSE,165,9.0,9.0,63,0.00,,---,0.00,VWS V14.00,2013-03-27 19:17:00,
2013-03-27 13:22:00,46.7,34.4,29.92,South,171,7.0,12.0,62,0.00,,---,0.00,VWS V14.00,2013-03-27 19:22:00,
2013-03-27 13:28:00,47.1,34.4,29.92,SSE,167,0.0,8.0,61,0.00,,---,0.00,VWS V14.00,2013-03-27 19:28:00,
2013-03-27 13:33:00,47.3,33.7,29.92,SE,138,7.0,12.0,59,0.00,,---,0.00,VWS V14.00,2013-03-27 19:33:00,
2013-03-27 13:38:00,47.1,33.9,29.91,SE,136,10.0,14.0,60,0.00,,---,0.00,VWS V14.00,2013-03-27 19:38:00,
2013-03-27 13:43:00,47.0,33.8,29.91,SSE,154,6.0,14.0,60,0.00,,---,0.00,VWS V14.00,2013-03-27 19:43:00,
2013-03-27 13:48:00,47.2,34.0,29.91,SSE,157,8.0,14.0,60,0.00,,---,0.00,VWS V14.00,2013-03-27 19:48:00,
2013-03-27 13:53:00,47.4,34.2,29.91,SE,146,6.0,14.0,60,0.00,,---,0.00,VWS V14.00,2013-03-27 19:53:00,
2013-03-27 13:59:00,47.6,34.0,29.91,South,178,6.0,12.0,59,0.00,,---,0.00,VWS V14.00,2013-03-27 19:59:00,
2013-03-27 14:04:00,48.2,35.4,29.90,SSE,155,9.0,12.0,61,0.00,,---,0.00,VWS V14.00,2013-03-27 20:04:00,
2013-03-27 14:09:00,48.1,34.0,29.90,SSE,160,9.0,12.0,58,0.00,,---,0.00,VWS V14.00,2013-03-27 20:09:00,
2013-03-27 14:14:00,48.2,32.8,29.90,SSE,153,7.0,12.0,55,0.00,,---,0.00,VWS V14.00,2013-03-27 20:14:00,
2013-03-27 14:20:00,48.2,32.3,29.90,SSE,153,12.0,12.0,54,0.00,,---,0.00,VWS V14.00,2013-03-27 20:20:00,
2013-03-27 14:25:00,48.8,32.4,29.90,SSE,167,9.0,13.0,53,0.00,,---,0.00,VWS V14.00,2013-03-27 20:25:00,
2013-03-27 14:30:00,48.8,32.0,29.90,SSE,159,7.0,11.0,52,0.00,,---,0.00,VWS V14.00,2013-03-27 20:30:00,
2013-03-27 14:35:00,49.4,32.0,29.90,SSE,158,8.0,8.0,51,0.00,,---,0.00,VWS V14.00,2013-03-27 20:35:00,
2013-03-27 14:40:00,49.2,31.4,29.90,SE,133,7.0,11.0,50,0.00,,---,0.00,VWS V14.00,2013-03-27 20:40:00,
2013-03-27 14:45:00,48.8,30.0,29.90,South,169,5.0,8.0,48,0.00,,---,0.00,VWS V14.00,2013-03-27 20:45:00,
2013-03-27 14:51:00,48.8,31.0,29.90,South,169,5.0,11.0,50,0.00,,---,0.00,VWS V14.00,2013-03-27 20:51:00,
2013-03-27 14:56:00,48.9,31.1,29.89,South,178,7.0,9.0,50,0.00,,---,0.00,VWS V14.00,2013-03-27 20:56:00,
2013-03-27 15:02:00,48.8,31.0,29.89,SE,135,7.0,14.0,50,0.00,,---,0.00,VWS V14.00,2013-03-27 21:02:00,
2013-03-27 15:07:00,48.5,31.2,29.89,South,187,6.0,10.0,51,0.00,,---,0.00,VWS V14.00,2013-03-27 21:07:00,
2013-03-27 15:12:00,48.8,31.0,29.89,SE,140,9.0,10.0,50,0.00,,---,0.00,VWS V14.00,2013-03-27 21:12:00,
2013-03-27 15:17:00,49.0,31.2,29.89,South,184,4.0,7.0,50,0.00,,---,0.00,VWS V14.00,2013-03-27 21:17:00,
2013-03-27 15:22:00,49.1,30.8,29.89,SSE,150,5.0,12.0,49,0.00,,---,0.00,VWS V14.00,2013-03-27 21:22:00,
2013-03-27 15:27:00,49.0,31.7,29.89,South,182,7.0,10.0,51,0.00,,---,0.00,VWS V14.00,2013-03-27 21:27:00,
2013-03-27 15:33:00,48.6,32.3,29.89,SSE,160,7.0,10.0,53,0.00,,---,0.00,VWS V14.00,2013-03-27 21:33:00,
2013-03-27 15:38:00,48.5,32.2,29.89,SE,146,7.0,11.0,53,0.00,,---,0.00,VWS V14.00,2013-03-27 21:38:00,
2013-03-27 15:43:00,49.0,32.2,29.88,SSE,165,8.0,11.0,52,0.00,,---,0.00,VWS V14.00,2013-03-27 21:43:00,
2013-03-27 15:48:00,49.3,32.9,29.88,SE,136,0.0,10.0,53,0.00,,---,0.00,VWS V14.00,2013-03-27 21:48:00,
2013-03-27 15:53:00,49.6,32.7,29.88,SE,139,8.0,12.0,52,0.00,,---,0.00,VWS V14.00,2013-03-27 21:53:00,
2013-03-27 15:59:00,49.9,31.5,29.88,ESE,123,11.0,14.0,49,0.00,,---,0.00,VWS V14.00,2013-03-27 21:59:00,
2013-03-27 16:04:00,49.5,31.1,29.88,SSE,161,12.0,14.0,49,0.00,,---,0.00,VWS V14.00,2013-03-27 22:04:00,
2013-03-27 16:09:00,50.0,31.6,29.88,SE,146,10.0,15.0,49,0.00,,---,0.00,VWS V14.00,2013-03-27 22:09:00,
2013-03-27 16:14:00,49.9,31.5,29.88,SSE,165,14.0,15.0,49,0.00,,---,0.00,VWS V14.00,2013-03-27 22:14:00,
2013-03-27 16:19:00,49.6,31.2,29.88,South,171,10.0,16.0,49,0.00,,---,0.00,VWS V14.00,2013-03-27 22:19:00,
2013-03-27 16:25:00,49.5,31.1,29.88,SSE,154,10.0,16.0,49,0.00,,---,0.00,VWS V14.00,2013-03-27 22:25:00,
2013-03-27 16:30:00,49.6,31.7,29.88,SSE,153,12.0,17.0,50,0.00,,---,0.00,VWS V14.00,2013-03-27 22:30:00,
2013-03-27 16:35:00,49.6,32.2,29.87,SE,130,8.0,17.0,51,0.00,,---,0.00,VWS V14.00,2013-03-27 22:35:00,
2013-03-27 16:40:00,49.5,32.6,29.88,SSE,155,11.0,13.0,52,0.00,,---,0.00,VWS V14.00,2013-03-27 22:40:00,
2013-03-27 16:45:00,49.6,32.2,29.87,SSE,156,7.0,13.0,51,0.00,,---,0.00,VWS V14.00,2013-03-27 22:45:00,
2013-03-27 16:50:00,49.5,31.1,29.87,South,173,11.0,15.0,49,0.00,,---,0.00,VWS V14.00,2013-03-27 22:50:00,
2013-03-27 16:55:00,49.6,32.2,29.87,SE,140,8.0,15.0,51,0.00,,---,0.00,VWS V14.00,2013-03-27 22:55:00,
2013-03-27 17:00:00,49.4,33.0,29.87,South,177,11.0,12.0,53,0.00,,---,0.00,VWS V14.00,2013-03-27 23:00:00,
2013-03-27 17:05:00,49.2,33.3,29.87,ESE,107,7.0,7.0,54,0.00,,---,0.00,VWS V14.00,2013-03-27 23:05:00,
2013-03-27 17:10:00,49.3,33.8,29.87,SE,138,11.0,14.0,55,0.00,,---,0.00,VWS V14.00,2013-03-27 23:10:00,
2013-03-27 17:16:00,49.0,33.5,29.87,SSE,156,12.0,15.0,55,0.00,,---,0.00,VWS V14.00,2013-03-27 23:16:00,
2013-03-27 17:21:00,48.5,32.6,29.88,SSE,162,10.0,15.0,54,0.00,,---,0.00,VWS V14.00,2013-03-27 23:21:00,
2013-03-27 17:26:00,48.2,32.3,29.88,SSE,153,6.0,12.0,54,0.00,,---,0.00,VWS V14.00,2013-03-27 23:26:00,
2013-03-27 17:31:00,48.1,32.3,29.88,SE,138,5.0,15.0,54,0.00,,---,0.00,VWS V14.00,2013-03-27 23:31:00,
2013-03-27 17:36:00,47.9,32.1,29.88,SE,144,9.0,10.0,54,0.00,,---,0.00,VWS V14.00,2013-03-27 23:36:00,
2013-03-27 17:41:00,47.7,31.4,29.88,SSE,161,6.0,13.0,53,0.00,,---,0.00,VWS V14.00,2013-03-27 23:41:00,
2013-03-27 17:47:00,47.7,31.4,29.88,SSE,150,9.0,10.0,53,0.00,,---,0.00,VWS V14.00,2013-03-27 23:47:00,
2013-03-27 17:52:00,47.6,31.3,29.88,SSE,167,6.0,10.0,53,0.00,,---,0.00,VWS V14.00,2013-03-27 23:52:00,
2013-03-27 17:57:00,47.3,32.0,29.88,SSE,163,8.0,12.0,55,0.00,,---,0.00,VWS V14.00,2013-03-27 23:57:00,
2013-03-27 18:02:00,47.0,32.1,29.89,SSE,161,7.0,12.0,56,0.00,,---,0.00,VWS V14.00,2013-03-28 00:02:00,
2013-03-27 18:07:00,46.7,32.7,29.89,SSE,153,9.0,11.0,58,0.00,,---,0.00,VWS V14.00,2013-03-28 00:07:00,
2013-03-27 18:12:00,46.5,33.4,29.89,SSE,155,8.0,11.0,60,0.00,,---,0.00,VWS V14.00,2013-03-28 00:12:00,
2013-03-27 18:18:00,46.5,33.8,29.88,SSE,158,9.0,10.0,61,0.00,,---,0.00,VWS V14.00,2013-03-28 00:18:00,
2013-03-27 18:23:00,46.6,33.9,29.88,ESE,117,6.0,10.0,61,0.00,,---,0.00,VWS V14.00,2013-03-28 00:23:00,
2013-03-27 18:28:00,46.6,34.3,29.89,ESE,119,0.0,4.0,62,0.00,,---,0.00,VWS V14.00,2013-03-28 00:28:00,
2013-03-27 18:33:00,46.4,33.7,29.89,SE,144,6.0,7.0,61,0.00,,---,0.00,VWS V14.00,2013-03-28 00:33:00,
2013-03-27 18:38:00,46.1,34.2,29.89,SSE,160,2.0,7.0,63,0.00,,---,0.00,VWS V14.00,2013-03-28 00:38:00,
2013-03-27 18:43:00,45.6,33.8,29.89,SSE,156,2.0,8.0,63,0.00,,---,0.00,VWS V14.00,2013-03-28 00:43:00,
2013-03-27 18:49:00,45.3,33.1,29.90,SSE,168,6.0,6.0,62,0.00,,---,0.00,VWS V14.00,2013-03-28 00:49:00,
2013-03-27 18:54:00,45.1,32.5,29.90,South,178,5.0,7.0,61,0.00,,---,0.00,VWS V14.00,2013-03-28 00:54:00,
2013-03-27 18:59:00,44.9,32.7,29.90,South,178,5.0,6.0,62,0.00,,---,0.00,VWS V14.00,2013-03-28 00:59:00,
2013-03-27 19:04:00,44.5,32.7,29.90,South,178,5.0,7.0,63,0.00,,---,0.00,VWS V14.00,2013-03-28 01:04:00,
2013-03-27 19:09:00,44.4,33.4,29.89,South,184,6.0,7.0,65,0.00,,---,0.00,VWS V14.00,2013-03-28 01:09:00,
2013-03-27 19:15:00,44.2,33.2,29.90,South,187,4.0,7.0,65,0.00,,---,0.00,VWS V14.00,2013-03-28 01:15:00,
2013-03-27 19:20:00,44.2,33.2,29.90,South,190,3.0,6.0,65,0.00,,---,0.00,VWS V14.00,2013-03-28 01:20:00,
2013-03-27 19:25:00,44.1,33.1,29.89,South,190,3.0,6.0,65,0.00,,---,0.00,VWS V14.00,2013-03-28 01:25:00,
2013-03-27 19:30:00,43.9,32.9,29.90,SSW,194,5.0,6.0,65,0.00,,---,0.00,VWS V14.00,2013-03-28 01:30:00,
2013-03-27 19:35:00,43.7,32.7,29.90,SSW,206,5.0,5.0,65,0.00,,---,0.00,VWS V14.00,2013-03-28 01:35:00,
2013-03-27 19:40:00,43.6,33.0,29.90,SSW,203,6.0,7.0,66,0.00,,---,0.00,VWS V14.00,2013-03-28 01:40:00,
2013-03-27 19:45:00,43.5,32.9,29.90,SSW,202,5.0,6.0,66,0.00,,---,0.00,VWS V14.00,2013-03-28 01:45:00,
2013-03-27 19:50:00,43.6,33.0,29.90,SSW,208,5.0,6.0,66,0.00,,---,0.00,VWS V14.00,2013-03-28 01:50:00,
2013-03-27 19:56:00,43.6,33.0,29.90,SSW,204,4.0,5.0,66,0.00,,---,0.00,VWS V14.00,2013-03-28 01:56:00,
2013-03-27 20:01:00,43.5,32.5,29.90,SSW,210,3.0,5.0,65,0.00,,---,0.00,VWS V14.00,2013-03-28 02:01:00,
2013-03-27 20:06:00,43.5,32.5,29.90,SSW,210,3.0,4.0,65,0.00,,---,0.00,VWS V14.00,2013-03-28 02:06:00,
2013-03-27 20:12:00,43.6,32.2,29.91,SSW,213,2.0,4.0,64,0.00,,---,0.00,VWS V14.00,2013-03-28 02:12:00,
2013-03-27 20:17:00,43.7,32.3,29.90,SW,219,5.0,5.0,64,0.00,,---,0.00,VWS V14.00,2013-03-28 02:17:00,
2013-03-27 20:22:00,44.0,32.6,29.91,SW,226,3.0,6.0,64,0.00,,---,0.00,VWS V14.00,2013-03-28 02:22:00,
2013-03-27 20:27:00,43.9,32.1,29.91,West,262,4.0,7.0,63,0.00,,---,0.00,VWS V14.00,2013-03-28 02:27:00,
2013-03-27 20:33:00,43.3,32.3,29.91,West,262,0.0,7.0,65,0.00,,---,0.00,VWS V14.00,2013-03-28 02:33:00,
2013-03-27 20:38:00,42.2,33.1,29.91,West,262,0.0,0.0,70,0.00,,---,0.00,VWS V14.00,2013-03-28 02:38:00,
2013-03-27 20:43:00,41.8,33.5,29.91,West,267,2.0,4.0,72,0.00,,---,0.00,VWS V14.00,2013-03-28 02:43:00,
2013-03-27 20:48:00,41.1,34.1,29.91,NNW,341,0.0,4.0,76,0.00,,---,0.00,VWS V14.00,2013-03-28 02:48:00,
2013-03-27 20:53:00,40.6,34.0,29.91,NNW,341,0.0,4.0,77,0.00,,---,0.00,VWS V14.00,2013-03-28 02:53:00,
2013-03-27 20:59:00,40.2,33.9,29.91,NNW,341,0.0,1.0,78,0.00,,---,0.00,VWS V14.00,2013-03-28 02:59:00,
2013-03-27 21:04:00,39.8,33.5,29.92,NNW,341,0.0,1.0,78,0.00,,---,0.00,VWS V14.00,2013-03-28 03:04:00,
2013-03-27 21:09:00,39.6,33.6,29.92,NNW,341,2.0,3.0,79,0.00,,---,0.00,VWS V14.00,2013-03-28 03:09:00,
2013-03-27 21:14:00,39.4,33.4,29.92,NNW,341,0.0,3.0,79,0.00,,---,0.00,VWS V14.00,2013-03-28 03:14:00,
2013-03-27 21:19:00,39.4,33.8,29.92,NNW,341,0.0,2.0,80,0.00,,---,0.00,VWS V14.00,2013-03-28 03:19:00,
2013-03-27 21:24:00,39.5,33.5,29.92,NNW,333,4.0,5.0,79,0.00,,---,0.00,VWS V14.00,2013-03-28 03:24:00,
2013-03-27 21:29:00,39.4,33.8,29.92,NNW,337,4.0,5.0,80,0.00,,---,0.00,VWS V14.00,2013-03-28 03:29:00,
2013-03-27 21:35:00,39.4,33.8,29.92,NNW,331,4.0,5.0,80,0.00,,---,0.00,VWS V14.00,2013-03-28 03:35:00,
2013-03-27 21:40:00,39.5,33.5,29.91,NW,323,4.0,6.0,79,0.00,,---,0.00,VWS V14.00,2013-03-28 03:40:00,
2013-03-27 21:45:00,40.0,34.0,29.92,NW,315,5.0,6.0,79,0.00,,---,0.00,VWS V14.00,2013-03-28 03:45:00,
2013-03-27 21:50:00,39.8,33.5,29.91,NW,311,2.0,6.0,78,0.00,,---,0.00,VWS V14.00,2013-03-28 03:50:00,
2013-03-27 21:55:00,39.7,33.7,29.91,NW,306,4.0,5.0,79,0.00,,---,0.00,VWS V14.00,2013-03-28 03:55:00,
2013-03-27 22:00:00,39.9,33.9,29.92,WNW,298,5.0,7.0,79,0.00,,---,0.00,VWS V14.00,2013-03-28 04:00:00,
2013-03-27 22:01:00,40.0,33.7,29.92,NW,309,5.0,7.0,78,0.00,,---,0.00,VWS V14.00,2013-03-28 04:01:00,
2013-03-27 22:02:00,40.0,33.7,29.92,NW,309,4.0,7.0,78,0.00,,---,0.00,VWS V14.00,2013-03-28 04:02:00,
2013-03-27 22:07:00,39.5,33.2,29.92,NW,318,3.0,5.0,78,0.00,,---,0.00,VWS V14.00,2013-03-28 04:07:00,
2013-03-27 22:12:00,39.0,33.0,29.92,NNW,348,4.0,5.0,79,0.00,,---,0.00,VWS V14.00,2013-03-28 04:12:00,
2013-03-27 22:17:00,38.5,33.2,29.91,NNW,333,5.0,6.0,81,0.00,,---,0.00,VWS V14.00,2013-03-28 04:17:00,
2013-03-27 22:22:00,38.5,32.9,29.91,NNW,344,0.0,6.0,80,0.00,,---,0.00,VWS V14.00,2013-03-28 04:22:00,
2013-03-27 22:28:00,38.4,32.8,29.91,NW,325,5.0,7.0,80,0.00,,---,0.00,VWS V14.00,2013-03-28 04:28:00,
2013-03-27 22:33:00,38.7,32.4,29.91,NW,318,6.0,7.0,78,0.00,,---,0.00,VWS V14.00,2013-03-28 04:33:00,
2013-03-27 22:38:00,39.8,32.9,29.91,NW,315,12.0,12.0,76,0.00,,---,0.00,VWS V14.00,2013-03-28 04:38:00,
2013-03-27 22:43:00,40.7,33.1,29.91,NW,322,8.0,13.0,74,0.00,,---,0.00,VWS V14.00,2013-03-28 04:43:00,
2013-03-27 22:48:00,40.8,33.8,29.91,WNW,302,12.0,13.0,76,0.00,,---,0.00,VWS V14.00,2013-03-28 04:48:00,
2013-03-27 22:53:00,40.6,34.0,29.91,NW,318,9.0,14.0,77,0.00,,---,0.00,VWS V14.00,2013-03-28 04:53:00,
2013-03-27 22:59:00,40.0,33.7,29.91,NW,321,10.0,13.0,78,0.00,,---,0.00,VWS V14.00,2013-03-28 04:59:00,
2013-03-27 23:04:00,40.0,33.7,29.91,NW,310,11.0,13.0,78,0.00,,---,0.00,VWS V14.00,2013-03-28 05:04:00,
2013-03-27 23:09:00,40.2,33.6,29.90,NW,323,10.0,12.0,77,0.00,,---,0.00,VWS V14.00,2013-03-28 05:09:00,
2013-03-27 23:14:00,40.7,33.4,29.90,North,355,3.0,13.0,75,0.00,,---,0.00,VWS V14.00,2013-03-28 05:14:00,
2013-03-27 23:19:00,39.9,32.6,29.90,North,5,4.0,6.0,75,0.00,,---,0.00,VWS V14.00,2013-03-28 05:19:00,
2013-03-27 23:24:00,38.5,32.2,29.90,NW,307,8.0,8.0,78,0.00,,---,0.00,VWS V14.00,2013-03-28 05:24:00,
2013-03-27 23:29:00,38.8,32.5,29.90,NNE,15,3.0,12.0,78,0.00,,---,0.00,VWS V14.00,2013-03-28 05:29:00,
2013-03-27 23:34:00,37.9,32.0,29.90,NNE,17,2.0,12.0,79,0.00,,---,0.00,VWS V14.00,2013-03-28 05:34:00,
2013-03-27 23:39:00,37.6,31.7,29.90,North,355,0.0,5.0,79,0.00,,---,0.00,VWS V14.00,2013-03-28 05:39:00,
2013-03-27 23:44:00,37.5,31.9,29.90,NE,53,0.0,5.0,80,0.00,,---,0.00,VWS V14.00,2013-03-28 05:44:00,
2013-03-27 23:50:00,37.5,31.9,29.90,NE,53,0.0,1.0,80,0.00,,---,0.00,VWS V14.00,2013-03-28 05:50:00,
2013-03-27 23:55:00,37.6,31.7,29.90,NE,47,3.0,4.0,79,0.00,,---,0.00,VWS V14.00,2013-03-28 05:55:00,